📊 Raw Sensor Data

Showing records 39426 to 39450 of 84,945 total

ID Distance (ft) Battery V Battery A Int Temp (°F) Int Humid (%) Ext Temp (°F) Solar V RSSI SNR Time Stamp
45532 15.8 3.81 0 100 42 94 5.10 -71 8 07/06/2025 02:15 PM
45531 15.8 3.80 0 99 42 90 5.10 -71 7 07/06/2025 02:00 PM
45530 15.8 3.80 0 97 42 92 5.10 -71 7 07/06/2025 01:45 PM
45529 15.8 3.80 -5 96 42 90 5.10 -69 8 07/06/2025 01:30 PM
45528 15.8 3.80 -5 93 43 89 5.10 -70 8 07/06/2025 01:15 PM
45527 15.8 3.80 0 92 43 88 5.10 -71 7 07/06/2025 01:00 PM
45526 15.8 3.81 0 91 43 88 5.10 -71 7 07/06/2025 12:45 PM
45525 15.8 3.98 0 89 43 85 5.10 -71 8 07/06/2025 12:30 PM
45524 15.8 3.80 0 88 43 89 5.10 -72 8 07/06/2025 12:15 PM
45523 15.8 3.81 -5 87 43 87 5.10 -70 8 07/06/2025 12:00 PM
45522 15.8 3.81 0 86 43 89 5.10 -71 8 07/06/2025 11:45 AM
45521 15.8 3.81 -5 83 42 84 5.10 -70 8 07/06/2025 11:15 AM
45520 15.8 3.81 -5 82 42 84 5.10 -70 7 07/06/2025 11:00 AM
45519 15.8 3.81 0 81 42 77 5.10 -70 8 07/06/2025 10:45 AM
45518 15.9 3.81 -5 79 42 82 5.10 -70 8 07/06/2025 10:30 AM
45517 15.9 3.81 0 77 43 77 5.10 -71 8 07/06/2025 10:15 AM
45516 15.9 3.81 0 76 43 74 5.10 -69 8 07/06/2025 10:00 AM
45515 15.9 3.86 0 75 43 77 5.10 -70 8 07/06/2025 09:45 AM
45514 15.8 3.81 0 73 43 75 5.10 -70 8 07/06/2025 09:30 AM
45513 15.8 3.82 0 72 43 74 5.10 -69 7 07/06/2025 09:15 AM
45512 15.8 3.82 0 71 43 77 5.10 -70 8 07/06/2025 09:00 AM
45511 15.8 3.87 5 69 43 75 5.10 -69 8 07/06/2025 08:45 AM
45510 15.8 3.93 5 68 43 73 5.10 -70 8 07/06/2025 08:30 AM
45509 15.8 4.09 104 66 42 68 4.50 -70 7 07/06/2025 08:15 AM
45508 15.7 4.03 87 64 42 66 4.50 -72 8 07/06/2025 08:00 AM